TimeCDT,TemperatureF,Dew PointF,Humidity,Sea Level PressureIn,VisibilityMPH,Wind Direction,Wind SpeedMPH,Gust SpeedMPH,PrecipitationIn,Events,Conditions,WindDirDegrees,DateUTC
12:09 AM,26.2,18.7,73,30.11,10.0,Calm,Calm,-,N/A,,Clear,0,2013-05-13 05:09:00
12:29 AM,26.1,18.7,74,30.11,10.0,Calm,Calm,-,N/A,,Clear,0,2013-05-13 05:29:00
12:49 AM,24.8,19.9,82,30.10,10.0,Calm,Calm,-,N/A,,Clear,0,2013-05-13 05:49:00
1:09 AM,24.8,20.1,82,30.10,10.0,Calm,Calm,-,N/A,,Clear,0,2013-05-13 06:09:00
1:30 AM,24.8,19.8,81,30.10,10.0,Calm,Calm,-,N/A,,Clear,0,2013-05-13 06:30:00
1:49 AM,24.8,20.7,84,30.10,10.0,Calm,Calm,-,N/A,,Clear,0,2013-05-13 06:49:00
2:09 AM,23.0,19.8,87,30.10,10.0,Calm,Calm,-,N/A,,Clear,0,2013-05-13 07:09:00
2:30 AM,22.6,19.6,88,30.09,10.0,Calm,Calm,-,N/A,,Clear,0,2013-05-13 07:30:00
2:49 AM,22.8,19.9,89,30.09,10.0,Calm,Calm,-,N/A,,Clear,0,2013-05-13 07:49:00
3:09 AM,22.6,20.1,90,30.09,10.0,Calm,Calm,-,N/A,,Clear,0,2013-05-13 08:09:00
3:30 AM,22.6,20.3,91,30.09,10.0,Calm,Calm,-,N/A,,Clear,0,2013-05-13 08:30:00
3:49 AM,22.5,20.1,91,30.09,10.0,Calm,Calm,-,N/A,,Clear,0,2013-05-13 08:49:00
4:10 AM,22.5,20.1,91,30.09,10.0,Calm,Calm,-,N/A,,Clear,0,2013-05-13 09:10:00
4:29 AM,22.5,19.6,89,30.09,10.0,Calm,Calm,-,N/A,,Clear,0,2013-05-13 09:29:00
4:49 AM,22.5,19.9,90,30.09,10.0,Calm,Calm,-,N/A,,Clear,0,2013-05-13 09:49:00
5:10 AM,21.4,18.9,90,30.08,10.0,Calm,Calm,-,N/A,,Clear,0,2013-05-13 10:10:00
5:29 AM,20.7,18.5,91,30.09,10.0,Calm,Calm,-,N/A,,Clear,0,2013-05-13 10:29:00
5:49 AM,22.5,20.3,91,30.08,10.0,Calm,Calm,-,N/A,,Clear,0,2013-05-13 10:49:00
6:10 AM,22.5,20.1,91,30.09,10.0,Calm,Calm,-,N/A,,Clear,0,2013-05-13 11:10:00
6:49 AM,30.0,26.4,86,30.09,10.0,Calm,Calm,-,N/A,,Clear,0,2013-05-13 11:49:00
7:10 AM,32.2,23.9,72,30.09,10.0,Calm,Calm,-,N/A,,Clear,0,2013-05-13 12:10:00
7:29 AM,35.1,23.7,63,30.09,10.0,Calm,Calm,-,N/A,,Clear,0,2013-05-13 12:29:00
7:49 AM,37.6,22.5,54,30.09,10.0,SE,3.5,-,N/A,,Clear,140,2013-05-13 12:49:00
8:09 AM,42.6,20.7,42,30.08,10.0,SSE,5.8,-,N/A,,Clear,150,2013-05-13 13:09:00
8:29 AM,43.5,18.5,37,30.06,10.0,SSE,11.5,-,N/A,,Clear,160,2013-05-13 13:29:00
8:50 AM,44.1,17.1,34,30.05,10.0,South,10.4,-,N/A,,Clear,170,2013-05-13 13:50:00
9:09 AM,45.5,16.7,32,30.05,10.0,South,11.5,-,N/A,,Clear,180,2013-05-13 14:09:00
9:29 AM,46.6,16.9,31,30.04,10.0,SSE,12.7,-,N/A,,Clear,160,2013-05-13 14:29:00
9:50 AM,49.8,17.8,28,30.02,10.0,South,12.7,16.1,N/A,,Clear,170,2013-05-13 14:50:00
10:09 AM,48.9,16.3,27,30.01,10.0,SSE,13.8,18.4,N/A,,Scattered Clouds,160,2013-05-13 15:09:00
10:29 AM,48.9,16.7,28,30.00,10.0,South,8.1,-,N/A,,Overcast,180,2013-05-13 15:29:00
10:50 AM,50.2,17.4,27,29.99,10.0,SSE,13.8,-,N/A,,Mostly Cloudy,150,2013-05-13 15:50:00
11:09 AM,52.7,17.6,25,29.98,10.0,SSE,8.1,-,N/A,,Scattered Clouds,160,2013-05-13 16:09:00
11:29 AM,52.7,18.3,26,29.96,10.0,SSE,12.7,21.9,N/A,,Clear,150,2013-05-13 16:29:00
11:50 AM,53.6,18.7,25,29.95,10.0,SSE,15.0,20.7,N/A,,Scattered Clouds,150,2013-05-13 16:50:00
12:09 PM,54.7,19.6,25,29.95,10.0,SSE,16.1,20.7,N/A,,Mostly Cloudy,160,2013-05-13 17:09:00
12:29 PM,53.1,18.9,26,29.94,10.0,SSE,10.4,17.3,N/A,,Overcast,160,2013-05-13 17:29:00
12:49 PM,53.1,19.6,27,29.93,10.0,SSE,10.4,-,N/A,,Overcast,150,2013-05-13 17:49:00
1:09 PM,53.1,20.1,28,29.93,10.0,South,13.8,17.3,N/A,Rain,Light Rain,190,2013-05-13 18:09:00
1:29 PM,52.7,24.4,33,29.93,10.0,South,13.8,21.9,N/A,Rain,Light Rain,190,2013-05-13 18:29:00
1:49 PM,49.3,31.3,50,29.91,10.0,South,13.8,17.3,N/A,,Drizzle,170,2013-05-13 18:49:00
2:10 PM,46.4,34.5,63,29.92,10.0,South,8.1,-,N/A,Rain,Light Rain,190,2013-05-13 19:10:00
2:29 PM,47.1,34.7,62,29.91,10.0,SSE,8.1,-,N/A,,Overcast,160,2013-05-13 19:29:00
3:29 PM,54.7,33.6,45,29.84,10.0,SSE,17.3,20.7,N/A,,Clear,150,2013-05-13 20:29:00
3:49 PM,57.4,34.2,42,29.83,10.0,South,17.3,25.3,N/A,,Clear,170,2013-05-13 20:49:00
4:10 PM,57.6,32.9,39,29.81,10.0,South,16.1,24.2,N/A,,Clear,180,2013-05-13 21:10:00
4:29 PM,57.6,33.1,40,29.79,10.0,SSE,21.9,26.5,N/A,,Clear,150,2013-05-13 21:29:00
4:49 PM,57.6,32.4,39,29.79,10.0,SSE,20.7,25.3,N/A,,Clear,160,2013-05-13 21:49:00
5:10 PM,57.6,32.0,38,29.79,10.0,South,19.6,24.2,N/A,,Clear,180,2013-05-13 22:10:00
5:29 PM,57.6,31.5,37,29.79,10.0,South,16.1,23.0,N/A,,Clear,170,2013-05-13 22:29:00
5:49 PM,57.6,32.0,38,29.78,10.0,South,16.1,21.9,N/A,,Clear,170,2013-05-13 22:49:00
6:29 PM,57.6,33.8,41,29.76,10.0,South,17.3,24.2,N/A,,Clear,170,2013-05-13 23:29:00
7:10 PM,57.6,34.3,42,29.74,10.0,SSE,10.4,-,N/A,,Clear,150,2013-05-14 00:10:00
7:29 PM,57.6,35.1,43,29.73,10.0,SSE,10.4,19.6,N/A,,Clear,150,2013-05-14 00:29:00
7:49 PM,55.0,33.4,44,29.72,10.0,SSE,10.4,16.1,N/A,,Clear,150,2013-05-14 00:49:00
8:10 PM,53.8,33.3,46,29.72,10.0,Calm,Calm,-,N/A,,Clear,0,2013-05-14 01:10:00
8:29 PM,52.7,33.4,48,29.72,10.0,East,3.5,-,N/A,,Clear,90,2013-05-14 01:29:00
8:49 PM,52.7,34.0,49,29.71,10.0,SE,9.2,-,N/A,,Clear,140,2013-05-14 01:49:00
9:10 PM,51.4,33.8,51,29.71,10.0,SE,8.1,-,N/A,,Clear,140,2013-05-14 02:10:00
9:29 PM,51.6,34.0,51,29.71,10.0,SE,5.8,-,N/A,,Scattered Clouds,140,2013-05-14 02:29:00
9:49 PM,50.0,32.7,52,29.71,10.0,SE,4.6,-,N/A,,Scattered Clouds,140,2013-05-14 02:49:00
10:10 PM,47.5,32.0,55,29.71,10.0,SSE,4.6,-,N/A,,Clear,150,2013-05-14 03:10:00
10:29 PM,47.3,32.0,55,29.71,10.0,Calm,Calm,-,N/A,,Clear,0,2013-05-14 03:29:00
10:49 PM,44.6,31.8,61,29.71,10.0,Calm,Calm,-,N/A,,Clear,0,2013-05-14 03:49:00
11:10 PM,42.8,32.4,67,29.71,10.0,Calm,Calm,-,N/A,,Clear,0,2013-05-14 04:10:00
11:29 PM,41.4,31.3,67,29.71,10.0,Calm,Calm,-,N/A,,Clear,0,2013-05-14 04:29:00
11:49 PM,39.6,31.6,73,29.71,10.0,Calm,Calm,-,N/A,,Clear,0,2013-05-14 04:49:00